sat.trackr.live / text

‹ back to catalog

STARLINK-30152

NORAD 56828 · 2023-079F

PAYLOAD ACTIVE UNKNOWN

§ Identity

Operator
Country
US
Launch date
2023-06-04
Launch site
AFETR
Launch vehicle
Mass (kg)
RCS (m²)

Purposes: comms

External: N2YO · Heavens-Above · Gunter

§ Orbital elements

Epoch: 2026-05-24T17:00:25.767648Z

Period
94.27 min
Inclination
43.0045°
Eccentricity
0.0001523
Mean motion
15.27582257 rev/d
Perigee alt
482.0 km
Apogee alt
484.1 km
Semi-major
6,861.2 km
B*
1.7650e-5
RAAN
37.7994°
Arg perigee
277.0195°
Mean anomaly
83.0484°
Rev number
16,451

§ Raw data

STARLINK-301521 56828U 23079F   26144.70863157  .00000223  00000+0  17650-4 0  99932 56828  43.0045  37.7994 0001523 277.0195  83.0484 15.27582257164516

JSON: /api/v1/satellites/56828 · /tle

For live sub-satellite position, see the globe view (requires WebGL).

§ Visibility from observer

Set your observer location to see the next 7 days of passes ≥ 10°. The values pass through the URL so the page stays shareable.

No JS? Fill the form by hand. The geolocation button needs JavaScript.